Home   Weather   Vancouver   Past weeks

Flag for USA Past Weather in Vancouver, Washington, USA — Yesterday and Last 2 Weeks

Now
33 °F

Sunny.


Feels Like: 25 °F
Forecast: 31 / 34 °F
Wind: 10 mph from East

Location: Vancouver - Pearson Airpark

Current Time: Dec 8, 2016 at 8:26:20 am

Latest Report: Dec 8, 2016 at 7:53 am


Visibility: 10 mi

Pressure: 30.03 "Hg

Humidity: 48%

Dew Point: 15 °F

Location of VancouverLocation

Past Weather in Vancouver — Graph

°F

Vancouver Temperature Yesterday

Maximum temperature yesterday: 40 °F (at 11:53 am)
Minimum temperature yesterday: 28 °F (at 7:53 am)
Average temperature yesterday: 34 °F

High & Low Weather Summary for the Past Weeks

 TemperatureHumidityPressure
High56 °F (Nov 26, 3:53 pm)97% (Nov 25, 9:53 pm)30.40 "Hg (Nov 25, 9:53 pm)
Low26 °F (Dec 6, 11:53 pm)46% (Dec 7, 2:53 pm)29.41 "Hg (Nov 26, 3:53 pm)
Average45 °F81%30.08 "Hg
* Reported Nov 23 6:53 am — Dec 8 6:53 am, Vancouver, Weather by CustomWeather, © 2016

Note: Actual official high and low records may vary slightly from our data, if they occured in-between our weather recording intervals... More about our weather records

Advertising

Vancouver Weather History for the Previous 24 Hours

Scroll right to see more
 ConditionsComfort  
Time TempWeatherWind HumidityBarometerVisibility
6:53 am
Thu, Dec 8
33 °FClear.15 mph48%30.04 "Hg10 mi
5:53 am33 °FClear.18 mph48%30.04 "Hg10 mi
4:53 am33 °FClear.15 mph48%30.06 "Hg10 mi
3:53 am34 °FClear.13 mph46%30.07 "Hg10 mi
2:53 am33 °FClear.18 mph48%30.12 "Hg10 mi
1:53 am34 °FClear.20 mph46%30.14 "Hg10 mi
12:53 am34 °FClear.17 mph46%30.16 "Hg10 mi
11:53 pm
Wed, Dec 7
34 °FClear.16 mph48%30.18 "Hg10 mi
10:53 pm34 °FClear.16 mph48%30.19 "Hg10 mi
9:53 pm34 °FClear.13 mph48%30.21 "Hg10 mi
8:53 pm35 °FClear.12 mph46%30.22 "Hg10 mi
7:53 pm34 °FClear.14 mph50%30.23 "Hg10 mi
6:53 pm35 °FClear.16 mph50%30.25 "Hg10 mi
5:53 pm35 °FClear.17 mph50%30.25 "Hg10 mi
4:53 pm36 °FClear.13 mph46%30.26 "Hg10 mi
3:53 pm37 °FSunny.12 mph46%30.28 "Hg10 mi
2:53 pm38 °FSunny.12 mph46%30.30 "Hg10 mi
1:53 pm38 °FSunny.16 mph48%30.31 "Hg10 mi
12:53 pm40 °FSunny.14 mph47%30.32 "Hg10 mi
11:53 am40 °FSunny.12 mph51%30.33 "Hg10 mi
10:53 am38 °FSunny.7 mph65%30.37 "Hg10 mi
9:53 am34 °FSunny.5 mph76%30.37 "Hg10 mi
8:53 am30 °FPassing clouds.3 mph89%30.37 "Hg9 mi
8:04 am28 °FIce fog.3 mph96%30.37 "Hg3 mi
Weather by CustomWeather, © 2016

See weather overviewHow to use our weather pages